This demonstration page uses our WeatherBlox Daily Observations layout. Learn more.

Left ArrowRight Arrow

Hourly Observations for October 13, 2022

Temp ( °F °C ) Dew Point ( °F °C ) Humidity (%) Winds ( mph kmh ) Pressure ( in mb ) Visibility ( mi km ) Precip ( " mm )
12:51 am 00:51 Clear 58 14.4 41 5 53 53 Calm 29.96 1015 10 16 0.00 0.00
1:51 am 01:51 Clear 57 13.9 41 5 55 55 Calm 29.96 1014 10 16 0.00 0.00
2:51 am 02:51 Clear 56 13.3 41 5 57 57 Calm 29.95 1014 10 16 0.00 0.00
3:51 am 03:51 Clear 54 12.2 43 6.1 66 66 Calm 29.95 1014 10 16 0.00 0.00
4:51 am 04:51 Clear 55 12.8 43 6.1 64 64 N 3 6 29.95 1014 10 16 0.00 0.00
5:51 am 05:51 Clear 53 11.7 43 6.1 68 68 Calm 29.98 1015 10 16 0.00 0.00
6:51 am 06:51 Sunny 54 12.2 43 6.1 66 66 NE 5 7 30.00 1016 10 16 0.00 0.00
7:51 am 07:51 Sunny 65 18.3 41 5 41 41 SE 10 17 30.00 1016 10 16 0.00 0.00
8:51 am 08:51 Sunny 70 21.1 39 3.9 32 32 E 10 17 30.00 1016 10 16 0.00 0.00
9:51 am 09:51 Sunny 75 23.9 38 3.3 26 26 ESE 9 15 29.98 1015 10 16 0.00 0.00
10:51 am 10:51 Sunny 78 25.6 42 5.6 28 28 S 6 9 29.97 1015 10 16 0.00 0.00
11:51 am 11:51 Sunny 80 26.7 43 6.1 27 27 Calm 29.94 1014 10 16 0.00 0.00
12:51 pm 12:51 Sunny 84 28.9 40 4.4 21 21 E 6 9 29.90 1013 10 16 0.00 0.00
1:51 pm 13:51 Sunny 86 30 39 3.9 19 19 undefined N/A 29.86 1011 10 16 0.00 0.00
2:51 pm 14:51 Sunny 85 29.4 37 2.8 18 18 Calm 29.85 1011 10 16 0.00 0.00
3:51 pm 15:51 Sunny 86 30 37 2.8 18 18 SSW 6 9 29.84 1010 10 16 0.00 0.00
4:51 pm 16:51 Sunny 85 29.4 36 2.2 17 17 SW 5 7 29.82 1010 10 16 0.00 0.00
5:51 pm 17:51 Clear 80 26.7 37 2.8 21 21 SW 3 6 29.83 1010 10 16 0.00 0.00
6:51 pm 18:51 Clear 72 22.2 40 4.4 31 31 S 3 6 29.86 1011 10 16 0.00 0.00
7:51 pm 19:51 Clear 69 20.6 38 3.3 32 32 Calm 29.85 1011 10 16 0.00 0.00
8:51 pm 20:51 Clear 67 19.4 41 5 39 39 E 8 13 29.85 1011 10 16 0.00 0.00
9:51 pm 21:51 Clear 64 17.8 41 5 43 43 ESE 3 6 29.85 1011 10 16 0.00 0.00
10:51 pm 22:51 Clear 61 16.1 41 5 48 48 Calm 29.85 1011 10 16 0.00 0.00
11:51 pm 23:51 Clear 60 15.6 41 5 49 49 SE 6 9 29.85 1011 10 16 0.00 0.00

Powered by AerisWeather